Time,TemperatureF,DewpointF,PressureIn,WindDirection,WindDirectionDegrees,WindSpeedMPH,WindSpeedGustMPH,Humidity,HourlyPrecipIn,Conditions,Clouds,dailyrainin,SolarRadiationWatts/m^2,SoftwareType,DateUTC
2013-03-21 00:03:00,-4.0,-9.0,-100.00,North,353,1.0,2.0,80,0.00,,,0.00,0.000000,,2013-03-21 05:03:00,
2013-03-21 00:33:00,-7.0,-12.0,-100.00,ESE,104,1.0,3.0,77,0.00,,,0.00,0.000000,,2013-03-21 05:33:00,
2013-03-21 00:44:00,-7.0,-12.0,-100.00,ESE,104,1.0,3.0,77,0.00,,,0.00,0.000000,,2013-03-21 05:44:00,
2013-03-21 00:52:00,-7.0,-12.0,-100.00,ESE,104,1.0,3.0,77,0.00,,,0.00,0.000000,,2013-03-21 05:52:00,
2013-03-21 01:03:00,-7.0,-12.0,-100.00,ESE,104,1.0,3.0,77,0.00,,,0.00,0.000000,,2013-03-21 06:03:00,
2013-03-21 01:32:00,-9.0,-15.0,-100.00,NW,311,2.0,3.0,75,0.00,,,0.00,0.000000,,2013-03-21 06:32:00,
2013-03-21 01:42:00,-9.0,-15.0,-100.00,NW,311,2.0,3.0,75,0.00,,,0.00,0.000000,,2013-03-21 06:42:00,
2013-03-21 01:52:00,-9.0,-15.0,-100.00,NW,311,2.0,3.0,75,0.00,,,0.00,0.000000,,2013-03-21 06:52:00,
2013-03-21 02:02:00,-9.0,-15.0,-100.00,NW,311,2.0,3.0,75,0.00,,,0.00,0.000000,,2013-03-21 07:02:00,
2013-03-21 02:32:00,-10.0,-16.0,-100.00,ESE,119,0.0,3.0,75,0.00,,,0.00,0.000000,,2013-03-21 07:32:00,
2013-03-21 02:43:00,-10.0,-16.0,-100.00,ESE,119,0.0,3.0,75,0.00,,,0.00,0.000000,,2013-03-21 07:43:00,
2013-03-21 02:52:00,-10.0,-16.0,-100.00,ESE,119,0.0,3.0,75,0.00,,,0.00,0.000000,,2013-03-21 07:52:00,
2013-03-21 03:02:00,-10.0,-16.0,-100.00,ESE,119,0.0,3.0,75,0.00,,,0.00,0.000000,,2013-03-21 08:02:00,
2013-03-21 03:33:00,-11.0,-17.0,-100.00,SW,235,1.0,2.0,72,0.00,,,0.00,0.000000,,2013-03-21 08:33:00,
2013-03-21 03:43:00,-11.0,-17.0,-100.00,SW,235,1.0,2.0,72,0.00,,,0.00,0.000000,,2013-03-21 08:43:00,
2013-03-21 03:52:00,-11.0,-17.0,-100.00,SW,235,1.0,2.0,72,0.00,,,0.00,0.000000,,2013-03-21 08:52:00,
2013-03-21 04:02:00,-11.0,-17.0,-100.00,SW,235,1.0,2.0,72,0.00,,,0.00,0.000000,,2013-03-21 09:02:00,
2013-03-21 04:33:00,-12.0,-18.0,-100.00,NNW,328,2.0,3.0,74,0.00,,,0.00,0.000000,,2013-03-21 09:33:00,
2013-03-21 04:43:00,-12.0,-18.0,-100.00,NNW,328,2.0,3.0,74,0.00,,,0.00,0.000000,,2013-03-21 09:43:00,
2013-03-21 04:53:00,-12.0,-18.0,-100.00,NNW,328,2.0,3.0,74,0.00,,,0.00,0.000000,,2013-03-21 09:53:00,
2013-03-21 05:03:00,-12.0,-18.0,-100.00,NNW,328,2.0,3.0,74,0.00,,,0.00,0.000000,,2013-03-21 10:03:00,
2013-03-21 05:34:00,-10.0,-16.0,-100.00,NW,324,2.0,3.0,74,0.00,,,0.00,0.000000,,2013-03-21 10:34:00,
2013-03-21 05:43:00,-10.0,-16.0,-100.00,NW,324,2.0,3.0,74,0.00,,,0.00,0.000000,,2013-03-21 10:43:00,
2013-03-21 05:53:00,-10.0,-16.0,-100.00,NW,324,2.0,3.0,74,0.00,,,0.00,0.000000,,2013-03-21 10:53:00,
2013-03-21 06:03:00,-10.0,-16.0,-100.00,NW,324,2.0,3.0,74,0.00,,,0.00,0.000000,,2013-03-21 11:03:00,
2013-03-21 06:33:00,-11.0,-17.0,-100.00,NW,312,1.0,3.0,72,0.00,,,0.00,0.000000,,2013-03-21 11:33:00,
2013-03-21 06:43:00,-11.0,-17.0,-100.00,NW,312,1.0,3.0,72,0.00,,,0.00,0.000000,,2013-03-21 11:43:00,
2013-03-21 06:53:00,-11.0,-17.0,-100.00,NW,312,1.0,3.0,72,0.00,,,0.00,0.000000,,2013-03-21 11:53:00,
2013-03-21 07:02:00,-11.0,-17.0,-100.00,NW,312,1.0,3.0,72,0.00,,,0.00,0.000000,,2013-03-21 12:02:00,
2013-03-21 07:33:00,-12.0,-18.0,-100.00,ENE,78,1.0,2.0,73,0.00,,,0.00,1.000000,,2013-03-21 12:33:00,
2013-03-21 07:43:00,-12.0,-18.0,-100.00,ENE,78,1.0,2.0,73,0.00,,,0.00,1.000000,,2013-03-21 12:43:00,
2013-03-21 07:53:00,-12.0,-18.0,-100.00,ENE,78,1.0,2.0,73,0.00,,,0.00,1.000000,,2013-03-21 12:53:00,
2013-03-21 08:02:00,-12.0,-18.0,-100.00,ENE,78,1.0,2.0,73,0.00,,,0.00,1.000000,,2013-03-21 13:02:00,
2013-03-21 08:33:00,2.0,-3.0,-100.00,SW,235,2.0,4.0,78,0.00,,,0.00,76.000000,,2013-03-21 13:33:00,
2013-03-21 08:43:00,2.0,-3.0,-100.00,SW,235,2.0,4.0,78,0.00,,,0.00,76.000000,,2013-03-21 13:43:00,
2013-03-21 08:52:00,2.0,-3.0,-100.00,SW,235,2.0,4.0,78,0.00,,,0.00,76.000000,,2013-03-21 13:52:00,
2013-03-21 09:02:00,2.0,-3.0,-100.00,SW,235,2.0,4.0,78,0.00,,,0.00,76.000000,,2013-03-21 14:02:00,
2013-03-21 09:32:00,15.0,6.0,-100.00,NW,316,5.0,9.0,67,0.00,,,0.00,265.000000,,2013-03-21 14:32:00,
2013-03-21 09:43:00,15.0,6.0,-100.00,NW,316,5.0,9.0,67,0.00,,,0.00,265.000000,,2013-03-21 14:43:00,
2013-03-21 09:52:00,15.0,6.0,-100.00,NW,316,5.0,9.0,67,0.00,,,0.00,265.000000,,2013-03-21 14:52:00,
2013-03-21 10:03:00,15.0,6.0,-100.00,NW,316,5.0,9.0,67,0.00,,,0.00,265.000000,,2013-03-21 15:03:00,
2013-03-21 10:33:00,21.0,6.0,-100.00,NNW,327,7.0,12.0,52,0.00,,,0.00,446.000000,,2013-03-21 15:33:00,
2013-03-21 10:43:00,21.0,6.0,-100.00,NNW,327,7.0,12.0,52,0.00,,,0.00,446.000000,,2013-03-21 15:43:00,
2013-03-21 10:53:00,21.0,6.0,-100.00,NNW,327,7.0,12.0,52,0.00,,,0.00,446.000000,,2013-03-21 15:53:00,
2013-03-21 11:03:00,21.0,6.0,-100.00,NNW,327,7.0,12.0,52,0.00,,,0.00,446.000000,,2013-03-21 16:03:00,
2013-03-21 11:33:00,24.0,6.0,-100.00,NW,311,7.0,12.0,46,0.00,,,0.00,594.000000,,2013-03-21 16:33:00,
2013-03-21 11:42:00,24.0,6.0,-100.00,NW,311,7.0,12.0,46,0.00,,,0.00,594.000000,,2013-03-21 16:42:00,
2013-03-21 11:53:00,24.0,6.0,-100.00,NW,311,7.0,12.0,46,0.00,,,0.00,594.000000,,2013-03-21 16:53:00,
2013-03-21 12:02:00,24.0,6.0,-100.00,NW,311,7.0,12.0,46,0.00,,,0.00,594.000000,,2013-03-21 17:02:00,
2013-03-21 12:33:00,27.0,9.0,-100.00,WNW,298,7.0,16.0,45,0.00,,,0.00,730.000000,,2013-03-21 17:33:00,
2013-03-21 12:43:00,27.0,9.0,-100.00,WNW,298,7.0,16.0,45,0.00,,,0.00,730.000000,,2013-03-21 17:43:00,
2013-03-21 12:53:00,27.0,9.0,-100.00,WNW,298,7.0,16.0,45,0.00,,,0.00,730.000000,,2013-03-21 17:53:00,
2013-03-21 13:02:00,27.0,9.0,-100.00,WNW,298,7.0,16.0,45,0.00,,,0.00,730.000000,,2013-03-21 18:02:00,
2013-03-21 13:32:00,29.0,9.0,-100.00,NW,304,6.0,14.0,42,0.00,,,0.00,765.000000,,2013-03-21 18:32:00,
2013-03-21 13:43:00,29.0,9.0,-100.00,NW,304,6.0,14.0,42,0.00,,,0.00,765.000000,,2013-03-21 18:43:00,
2013-03-21 13:52:00,29.0,9.0,-100.00,NW,304,6.0,14.0,42,0.00,,,0.00,765.000000,,2013-03-21 18:52:00,
2013-03-21 14:02:00,29.0,9.0,-100.00,NW,304,6.0,14.0,42,0.00,,,0.00,765.000000,,2013-03-21 19:02:00,
2013-03-21 14:32:00,31.0,8.0,-100.00,NW,308,6.0,11.0,37,0.00,,,0.00,760.000000,,2013-03-21 19:32:00,
2013-03-21 14:43:00,31.0,8.0,-100.00,NW,308,6.0,11.0,37,0.00,,,0.00,760.000000,,2013-03-21 19:43:00,
2013-03-21 14:53:00,31.0,8.0,-100.00,NW,308,6.0,11.0,37,0.00,,,0.00,760.000000,,2013-03-21 19:53:00,
2013-03-21 15:02:00,31.0,8.0,-100.00,NW,308,6.0,11.0,37,0.00,,,0.00,760.000000,,2013-03-21 20:02:00,
2013-03-21 15:33:00,32.0,9.0,-100.00,NW,306,5.0,15.0,38,0.00,,,0.00,696.000000,,2013-03-21 20:33:00,
2013-03-21 15:42:00,32.0,9.0,-100.00,NW,306,5.0,15.0,38,0.00,,,0.00,696.000000,,2013-03-21 20:42:00,
2013-03-21 15:53:00,32.0,9.0,-100.00,NW,306,5.0,15.0,38,0.00,,,0.00,696.000000,,2013-03-21 20:53:00,
2013-03-21 16:02:00,32.0,9.0,-100.00,NW,306,5.0,15.0,38,0.00,,,0.00,696.000000,,2013-03-21 21:02:00,
2013-03-21 16:33:00,31.0,8.0,-100.00,NW,310,7.0,12.0,37,0.00,,,0.00,580.000000,,2013-03-21 21:33:00,
2013-03-21 16:43:00,31.0,8.0,-100.00,NW,310,7.0,12.0,37,0.00,,,0.00,580.000000,,2013-03-21 21:43:00,
2013-03-21 16:53:00,31.0,8.0,-100.00,NW,310,7.0,12.0,37,0.00,,,0.00,580.000000,,2013-03-21 21:53:00,
2013-03-21 17:03:00,31.0,8.0,-100.00,NW,310,7.0,12.0,37,0.00,,,0.00,580.000000,,2013-03-21 22:03:00,
2013-03-21 17:34:00,29.0,5.0,-100.00,NNW,330,8.0,15.0,36,0.00,,,0.00,422.000000,,2013-03-21 22:34:00,
2013-03-21 17:43:00,29.0,5.0,-100.00,NNW,330,8.0,15.0,36,0.00,,,0.00,422.000000,,2013-03-21 22:43:00,
2013-03-21 17:53:00,29.0,5.0,-100.00,NNW,330,8.0,15.0,36,0.00,,,0.00,422.000000,,2013-03-21 22:53:00,
2013-03-21 18:02:00,29.0,5.0,-100.00,NNW,330,8.0,15.0,36,0.00,,,0.00,422.000000,,2013-03-21 23:02:00,
2013-03-21 18:33:00,27.0,6.0,-100.00,NNW,331,8.0,15.0,40,0.00,,,0.00,241.000000,,2013-03-21 23:33:00,
2013-03-21 18:43:00,27.0,6.0,-100.00,NNW,331,8.0,15.0,40,0.00,,,0.00,241.000000,,2013-03-21 23:43:00,
2013-03-21 18:53:00,27.0,6.0,-100.00,NNW,331,8.0,15.0,40,0.00,,,0.00,241.000000,,2013-03-21 23:53:00,
2013-03-21 19:02:00,27.0,6.0,-100.00,NNW,331,8.0,15.0,40,0.00,,,0.00,241.000000,,2013-03-22 00:02:00,
2013-03-21 19:32:00,24.0,5.0,-100.00,NNW,333,5.0,12.0,44,0.00,,,0.00,55.000000,,2013-03-22 00:32:00,
2013-03-21 19:42:00,24.0,5.0,-100.00,NNW,333,5.0,12.0,44,0.00,,,0.00,55.000000,,2013-03-22 00:42:00,
2013-03-21 19:52:00,24.0,5.0,-100.00,NNW,333,5.0,12.0,44,0.00,,,0.00,55.000000,,2013-03-22 00:52:00,
2013-03-21 20:02:00,24.0,5.0,-100.00,NNW,333,5.0,12.0,44,0.00,,,0.00,55.000000,,2013-03-22 01:02:00,
2013-03-21 20:33:00,18.0,4.0,-100.00,North,3,2.0,7.0,53,0.00,,,0.00,2.000000,,2013-03-22 01:33:00,
2013-03-21 20:43:00,18.0,4.0,-100.00,North,3,2.0,7.0,53,0.00,,,0.00,2.000000,,2013-03-22 01:43:00,
2013-03-21 20:53:00,18.0,4.0,-100.00,North,3,2.0,7.0,53,0.00,,,0.00,2.000000,,2013-03-22 01:53:00,
2013-03-21 21:02:00,18.0,4.0,-100.00,North,3,2.0,7.0,53,0.00,,,0.00,2.000000,,2013-03-22 02:02:00,
2013-03-21 21:32:00,10.0,2.0,-100.00,WNW,301,2.0,3.0,70,0.00,,,0.00,0.000000,,2013-03-22 02:32:00,
2013-03-21 21:43:00,10.0,2.0,-100.00,WNW,301,2.0,3.0,70,0.00,,,0.00,0.000000,,2013-03-22 02:43:00,
2013-03-21 21:53:00,10.0,2.0,-100.00,WNW,301,2.0,3.0,70,0.00,,,0.00,0.000000,,2013-03-22 02:53:00,
2013-03-21 22:02:00,10.0,2.0,-100.00,WNW,301,2.0,3.0,70,0.00,,,0.00,0.000000,,2013-03-22 03:02:00,
2013-03-21 22:33:00,6.0,2.0,-100.00,WSW,245,1.0,3.0,83,0.00,,,0.00,0.000000,,2013-03-22 03:33:00,
2013-03-21 22:43:00,6.0,2.0,-100.00,WSW,245,1.0,3.0,83,0.00,,,0.00,0.000000,,2013-03-22 03:43:00,
2013-03-21 22:53:00,6.0,2.0,-100.00,WSW,245,1.0,3.0,83,0.00,,,0.00,0.000000,,2013-03-22 03:53:00,
2013-03-21 23:03:00,6.0,2.0,-100.00,WSW,245,1.0,3.0,83,0.00,,,0.00,0.000000,,2013-03-22 04:03:00,
2013-03-21 23:32:00,3.0,-1.0,-100.00,SW,234,1.0,3.0,84,0.00,,,0.00,0.000000,,2013-03-22 04:32:00,
2013-03-21 23:43:00,3.0,-1.0,-100.00,SW,234,1.0,3.0,84,0.00,,,0.00,0.000000,,2013-03-22 04:43:00,
2013-03-21 23:52:00,3.0,-1.0,-100.00,SW,234,1.0,3.0,84,0.00,,,0.00,0.000000,,2013-03-22 04:52:00,